EST,Max TemperatureF,Mean TemperatureF,Min TemperatureF,Max Dew PointF,MeanDew PointF,Min DewpointF,Max Humidity, Mean Humidity, Min Humidity, Max Sea Level PressureIn, Mean Sea Level PressureIn, Min Sea Level PressureIn, Max VisibilityMiles, Mean VisibilityMiles, Min VisibilityMiles, Max Wind SpeedMPH, Mean Wind SpeedMPH, Max Gust SpeedMPH,PrecipitationIn, CloudCover, Events, WindDirDegrees
2011-12-1,49,41,33,30,23,14,70,48,26,30.29,30.13,29.92,10,10,10,23,13,29,0.00,0,,330
2011-12-2,52,40,28,35,30,25,89,67,45,30.47,30.33,30.26,10,10,10,16,6,22,0.00,3,,267
2011-12-3,48,40,32,30,28,25,82,62,42,30.66,30.60,30.49,10,10,8,15,5,22,0.00,3,,360
2011-12-4,54,42,30,47,39,28,96,80,63,30.59,30.50,30.41,10,8,4,12,2,17,0.00,5,Fog,164
2011-12-5,54,48,42,52,48,41,100,95,89,30.38,30.32,30.21,10,2,0,9,3,12,0.01,7,Fog,198
2011-12-6,58,55,52,56,54,51,100,93,86,30.18,30.04,29.91,10,5,2,17,10,23,0.21,8,Rain,207
2011-12-7,58,55,51,56,54,49,100,97,93,29.89,29.65,29.28,5,2,1,22,7,29,0.99,8,Rain,207
2011-12-8,51,41,30,43,30,23,92,69,45,30.32,29.85,29.21,10,8,2,40,14,56,0.22,4,Rain,304
2011-12-9,52,40,27,44,34,24,85,73,61,30.35,30.29,30.19,10,10,6,17,6,23,0.01,5,Rain,222
2011-12-10,48,39,30,45,26,10,93,66,38,30.47,30.27,30.15,10,10,6,18,8,22,0.06,5,Rain,329
2011-12-11,41,32,22,28,17,10,81,56,30,30.63,30.59,30.48,10,10,10,12,2,14,0.00,0,,313
2011-12-12,45,35,24,30,24,19,81,63,45,30.60,30.52,30.42,10,10,7,10,2,13,0.00,4,,247
2011-12-13,47,36,24,29,23,19,81,58,34,30.41,30.33,30.27,10,10,9,17,7,22,0.00,2,,331
2011-12-14,50,41,31,37,32,28,89,70,50,30.40,30.36,30.31,10,10,8,10,5,16,0.00,4,,18
2011-12-15,55,51,46,50,44,37,83,65,47,30.30,30.07,29.77,10,10,10,23,14,32,T,8,,198
2011-12-16,56,47,38,48,30,21,83,60,37,30.12,29.99,29.75,10,10,10,31,13,39,0.00,6,,288
2011-12-17,43,37,30,28,23,11,78,61,43,30.13,30.08,30.04,10,10,10,17,7,23,0.00,6,,333
2011-12-18,30,24,18,12,8,3,62,47,31,30.31,30.22,30.12,10,10,10,18,8,24,0.00,2,,342
2011-12-19,47,32,17,35,24,10,74,64,53,30.29,30.11,29.95,10,10,10,25,11,32,0.00,5,,229
2011-12-20,47,43,39,36,27,19,65,52,39,30.20,30.11,29.95,10,10,10,17,6,21,T,8,,332
2011-12-21,56,47,38,54,47,22,100,73,46,30.17,29.92,29.71,10,5,1,24,11,33,0.10,8,Rain,195
2011-12-22,59,51,42,49,41,37,86,65,44,30.08,29.99,29.77,10,10,5,21,8,30,0.04,5,Rain,280
2011-12-23,49,44,38,46,40,27,100,79,58,30.18,29.93,29.76,10,7,2,18,10,25,0.86,7,Rain,357
2011-12-24,38,30,22,27,17,9,68,52,36,30.46,30.36,30.19,10,10,10,20,8,23,0.00,2,,342
2011-12-25,47,34,20,36,27,15,77,65,53,30.42,30.18,29.87,10,10,10,21,6,28,0.00,6,,221
2011-12-26,46,37,28,34,26,21,78,58,37,30.29,30.10,29.87,10,10,10,26,10,35,T,3,Rain,302
2011-12-27,58,42,26,54,40,22,93,79,65,30.21,29.80,29.34,10,8,4,45,12,59,0.38,6,Rain,177
2011-12-28,51,41,30,43,27,15,89,66,43,29.80,29.54,29.36,10,10,10,30,16,40,0.00,4,,279
2011-12-29,34,29,23,21,11,6,69,51,32,30.04,29.96,29.80,10,10,10,22,9,30,0.00,4,,273
2011-12-30,52,41,30,42,33,21,96,75,54,30.06,30.01,29.97,10,9,6,14,4,17,0.00,6,,160
2011-12-31,56,48,40,47,43,37,93,80,66,29.99,29.88,29.78,10,10,6,13,4,15,0.06,5,Rain,257